This is the latest recevied weather packets stored in our database for station/object KJ5EHN. If no packets are shown the sender has not sent any weather packets the latest 1 day(s).
| Time | Temp. | Humidity | Pressure | Rain* | Wind** | Luminosity | Snow |
|---|---|---|---|---|---|---|---|
| 1778004176 | 28.89° C | 64% | 1004.6 hPa | 0 mm | 1.79 m/s, 347° | - | - |
| 1778003872 | 29.44° C | 64% | 1004.5 hPa | 0 mm | 0.45 m/s, 346° | - | - |
| 1778003569 | 28.33° C | 67% | 1004.7 hPa | 0 mm | 2.68 m/s, 305° | - | - |
| 1778003265 | 28.33° C | 68% | 1004.6 hPa | 0 mm | 1.79 m/s, 345° | - | - |
| 1778002963 | 28.33° C | 67% | 1004.6 hPa | 0 mm | 0.89 m/s, 259° | - | - |
| 1778002658 | 27.78° C | 68% | 1004.5 hPa | 0 mm | 0.89 m/s, 19° | - | - |
| 1778002355 | 27.78° C | 68% | 1004.4 hPa | 0 mm | 1.79 m/s, 53° | - | - |
| 1778002052 | 27.78° C | 69% | 1004.5 hPa | 0 mm | 2.68 m/s, 250° | - | - |
| 1778001749 | 27.78° C | 69% | 1004.6 hPa | 0 mm | 1.34 m/s, 276° | - | - |
| 1778001449 | 27.22° C | 72% | 1004.3 hPa | 0 mm | 1.34 m/s, 281° | - | - |
| 1778001146 | 26.11° C | 73% | 1004.6 hPa | 0 mm | 3.58 m/s, 358° | - | - |
| 1778000843 | 25.56° C | 74% | 1004.6 hPa | 0 mm | 1.79 m/s, 213° | - | - |
| 1778000540 | 25.56° C | 75% | 1004.8 hPa | 0 mm | 0.45 m/s, 40° | - | - |
| 1778000235 | 25.56° C | 75% | 1004.4 hPa | 0 mm | 2.68 m/s, 163° | - | - |
| 1777999931 | 25.56° C | 75% | 1004.7 hPa | 0 mm | 0.45 m/s, 333° | - | - |
| 1777999627 | 25.56° C | 75% | 1004.4 hPa | 0 mm | 2.24 m/s, 212° | - | - |
| 1777999324 | 25.56° C | 75% | 1004.2 hPa | 0 mm | 2.24 m/s, 25° | - | - |
| 1777999022 | 25° C | 75% | 1005.2 hPa | 0 mm | 2.68 m/s, 271° | - | - |
| 1777998720 | 25° C | 75% | 1004.5 hPa | 0 mm | 1.79 m/s, 238° | - | - |
| 1777998418 | 25° C | 75% | 1004.4 hPa | 0 mm | 1.34 m/s, 272° | - | - |
| 1777998115 | 25.56° C | 75% | 1005 hPa | 0 mm | 1.79 m/s, 354° | - | - |
| 1777997812 | 25.56° C | 74% | 1004.6 hPa | 0 mm | 3.58 m/s, 158° | - | - |
| 1777997509 | 25.56° C | 74% | 1004.3 hPa | 0 mm | 1.79 m/s, 312° | - | - |
| 1777997207 | 25.56° C | 73% | 1004.5 hPa | 0 mm | 2.24 m/s, 277° | - | - |
| 1777996904 | 25.56° C | 74% | 1004.3 hPa | 0 mm | 1.79 m/s, 239° | - | - |
* Rain latest hour (hover to see other rain measurements)
** Current wind speed in m/s (hover to see current wind gust speed)